Zurück zum Katalog

SEDSAT 1

AktivWissenschaftLEO
NORAD 25509·PAYLOAD·🇺🇸 United States

Gestartet Oct 24, 1998 von Cape Canaveral Space Force Station

Loading…

Nächste Überflüge (nächste 24 Stunden)

TLE

AktuellSource: Space-Track

Epoche: Sep 14, 2026, 11:46 UTC

1 25509U 98061B   26257.49061552  .00000351  00000-0  54206-4 0  9999
2 25509  31.4312 325.5655 0335882 141.5234 220.9846 14.33428990458659

Verfolge SEDSAT 1 in Echtzeit mit AllMySat

Download on the App Store